Amateur Radio Satellites - All Passes

Search period start: 25 May 2013 19:08
Search period end: 26 May 2013 19:08
Location: Mountain_View, 35.6670°N, 81.4000°W

Satellite Date Start Highest point End Downlink Frequencies (MHz)
Time Altitude Azimuth
UOSAT-12 25 May 19:18:16 19:21:00 15° 47° (NE) 19:23:43 437.025 FM, 437.400 FM
JAS-1B 25 May 19:31:16 19:39:36 42° 69° (ENE) 19:46:47 435.800 - 435.900 CW/SSB
Hamsat 25 May 19:55:46 19:59:58 72° 259° (W) 20:04:12 145.90 MHz
RS-15 25 May 20:14:29 20:21:28 17° 337° (NNW) 20:28:18 29.354 - 29.394 USB, Beacon 29.352 USB
SO-67 25 May 20:14:37 20:18:06 55° 76° (ENE) 20:21:37 435.3500 MHz FM
HO-68 25 May 20:21:39 20:25:13 15° 56° (ENE) 20:28:48 435.675 MHz FM
STRAND 1 25 May 20:30:07 20:34:55 41° 289° (WNW) 20:39:43 ?
JAS-2 25 May 20:32:24 20:35:47 13° 57° (ENE) 20:39:08 435.800 - 435.900 CW/SSB, 435.910 FM
UOSAT-12 25 May 20:57:01 21:01:33 61° 243° (WSW) 21:06:05 437.025 FM, 437.400 FM
KITSAT 1 25 May 21:03:55 21:05:09 10° 98° (E) 21:06:23 435.175 FM
JAS-1B 25 May 21:21:23 21:29:58 42° 261° (W) 21:37:29 435.800 - 435.900 CW/SSB
Oscar 11 25 May 22:02:17 22:06:15 37° 72° (ENE) 22:10:14 145.825 FM, Beacon 2401.500 USB
HO-68 25 May 22:04:44 22:11:52 86° 73° (ENE) 22:19:02 435.675 MHz FM
JAS-2 25 May 22:11:45 22:19:26 71° 73° (ENE) 22:27:14 435.800 - 435.900 CW/SSB, 435.910 FM
RS-15 25 May 22:35:13 22:40:52 15° 16° (NNE) 22:46:25 29.354 - 29.394 USB, Beacon 29.352 USB
OPAL 25 May 22:44:46 22:49:51 59° 72° (ENE) 22:54:55 ?
KITSAT 1 25 May 22:51:08 22:59:08 73° 114° (ESE) 23:07:11 435.175 FM
Oscar 11 25 May 23:39:57 23:42:35 16° 267° (W) 23:45:14 145.825 FM, Beacon 2401.500 USB
HO-68 25 May 23:56:50 00:00:16 14° 269° (W) 00:03:43 435.675 MHz FM
JAS-2 25 May 23:59:17 00:04:54 22° 269° (W) 00:10:37 435.800 - 435.900 CW/SSB, 435.910 FM
OPAL 26 May 00:26:21 00:29:03 14° 265° (W) 00:31:45 ?
RS-15 26 May 00:47:18 00:57:39 41° 48° (NE) 01:07:42 29.354 - 29.394 USB, Beacon 29.352 USB
KITSAT 1 26 May 00:48:48 00:55:14 26° 314° (NW) 01:01:44 435.175 FM
ISS 26 May 00:52:23 00:54:39 18° 129° (SE) 00:56:56 145.800 FM
MaSat-1 26 May 01:17:51 01:24:50 56° 110° (ESE) 01:30:41 437.345 MHz
AO-40 26 May 02:00:46 03:35:23 40° 229° (SW) 08:17:25 Beacon 2401.320
ISS 26 May 02:28:03 02:31:08 37° 323° (NW) 02:34:15 145.800 FM
Oscar 19 26 May 02:30:10 02:34:25 26° 96° (E) 02:38:38 437.125 CW, 437.150 USB
Uribyol 2 26 May 02:33:58 02:38:11 24° 96° (E) 02:42:23 436.500 FM
RS-15 26 May 02:59:42 03:10:14 54° 249° (WSW) 03:20:38 29.354 - 29.394 USB, Beacon 29.352 USB
MaSat-1 26 May 03:01:38 03:07:03 25° 300° (WNW) 03:11:45 437.345 MHz
Oscar 16 26 May 03:09:29 03:14:40 78° 103° (ESE) 03:19:48 437.025 USB, Beacon 2401.1428
AO-27 26 May 03:26:34 03:31:50 82° 103° (ESE) 03:37:04 436.795 MHz FM
ITAMSAT 1 26 May 03:32:20 03:37:36 90° 104° (ESE) 03:42:50 435.822 SSB
Uosat F 26 May 03:42:46 03:45:19 14° 93° (E) 03:47:51 435.120 FM
AO-Echo 26 May 03:45:03 03:49:33 39° 99° (E) 03:54:08 ?
Oscar 19 26 May 04:09:12 04:13:45 32° 290° (WNW) 04:18:15 437.125 CW, 437.150 USB
Gurwin Techsat 1B 26 May 04:11:20 04:15:37 24° 95° (E) 04:19:53 435.225 FM
Uribyol 2 26 May 04:12:58 04:17:41 35° 290° (WNW) 04:22:23 436.500 FM
Saudisat 1A 26 May 04:34:14 04:37:58 25° 111° (ESE) 04:41:44 436.775 MHz
Oscar 16 26 May 04:51:42 04:53:19 11° 298° (WNW) 04:54:55 437.025 USB, Beacon 2401.1428
AO-27 26 May 05:09:07 05:10:37 11° 298° (WNW) 05:12:07 436.795 MHz FM
Uosat F 26 May 05:19:30 05:24:26 56° 287° (WNW) 05:29:20 435.120 FM
AO-Echo 26 May 05:24:40 05:28:04 20° 292° (WNW) 05:31:31 ?
TMSAT-1 26 May 05:26:21 05:31:42 89° 104° (ESE) 05:37:00 436.925 FM
Gurwin Techsat 1B 26 May 05:50:49 05:55:37 36° 290° (WNW) 06:00:24 435.225 FM
AO-7 26 May 05:57:06 06:05:08 49° 101° (ESE) 06:13:07 29.400 - 29.500 MHz
PCSat 26 May 06:02:09 06:05:42 18° 105° (ESE) 06:09:17 145.825 MHz
STRAND 1 26 May 06:05:20 06:09:13 22° 67° (ENE) 06:13:06 ?
Oscar 10/S400 26 May 06:08:56 09:07:02 60° 246° (WSW) 16:35:46 145.825 - 145.975 CW/USB, Beacon 145.810 USB
Saudisat 1A 26 May 06:13:29 06:17:31 30° 307° (NW) 06:21:36 436.775 MHz
Sapphire 26 May 06:33:48 06:38:38 35° 109° (ESE) 06:43:29 437.095 MHz 1200 baud AX-25 AFSK
KITSAT 1 26 May 06:48:27 06:54:39 23° 44° (NE) 07:00:49 435.175 FM
TMSAT-1 26 May 07:10:03 07:10:49 10° 299° (WNW) 07:11:35 436.925 FM
ISS 26 May 07:23:45 07:24:58 12° 23° (NNE) 07:26:10 145.800 FM
PCSat 26 May 07:43:24 07:48:40 52° 300° (WNW) 07:53:58 145.825 MHz
STRAND 1 26 May 07:43:28 07:48:09 37° 262° (W) 07:52:52 ?
Hamsat 26 May 07:45:41 07:49:21 26° 96° (E) 07:53:00 145.90 MHz
AO-7 26 May 07:50:18 07:57:36 35° 298° (WNW) 08:04:54 29.400 - 29.500 MHz
Sapphire 26 May 08:17:24 08:22:03 29° 305° (NW) 08:26:44 437.095 MHz 1200 baud AX-25 AFSK
SO-50 26 May 08:26:35 08:31:24 85° 299° (WNW) 08:36:10 436.795 FM
KITSAT 1 26 May 08:42:48 08:50:58 82° 245° (WSW) 08:59:04 435.175 FM
ISS 26 May 08:58:52 09:02:12 67° 41° (NE) 09:05:32 145.800 FM
JAS-1B 26 May 09:10:41 09:16:31 74° 103° (ESE) 09:22:11 435.800 - 435.900 CW/SSB
SO-67 26 May 09:17:32 09:21:07 69° 283° (WNW) 09:24:40 435.3500 MHz FM
Hamsat 26 May 09:21:47 09:25:17 24° 290° (WNW) 09:28:47 145.90 MHz
HO-68 26 May 09:37:27 09:42:06 18° 93° (E) 09:46:44 435.675 MHz FM
PANSAT 26 May 10:06:16 10:08:51 17° 164° (SSE) 10:11:27 not established
SO-50 26 May 10:11:19 10:12:42 11° 317° (NW) 10:14:05 436.795 FM
KITSAT 1 26 May 10:41:47 10:45:06 13° 260° (W) 10:48:25 435.175 FM
OPAL 26 May 10:58:54 11:02:24 19° 96° (E) 11:05:52 ?
JAS-1B 26 May 11:04:12 11:06:22 12° 301° (WNW) 11:08:31 435.800 - 435.900 CW/SSB
UOSAT-12 26 May 11:05:31 11:10:01 82° 118° (ESE) 11:14:34 437.025 FM, 437.400 FM
JAS-2 26 May 11:11:12 11:17:49 79° 102° (ESE) 11:23:36 435.800 - 435.900 CW/SSB, 435.910 FM
HO-68 26 May 11:23:11 11:30:19 71° 288° (WNW) 11:37:25 435.675 MHz FM
Oscar 11 26 May 11:28:52 11:33:14 70° 284° (WNW) 11:37:35 145.825 FM, Beacon 2401.500 USB
PANSAT 26 May 11:45:22 11:48:43 27° 177° (S) 11:52:05 not established
MaSat-1 26 May 11:48:40 11:51:35 61° 249° (WSW) 11:54:06 437.345 MHz
OPAL 26 May 12:36:47 12:41:26 41° 291° (WNW) 12:46:02 ?
UOSAT-12 26 May 12:49:05 12:50:46 12° 316° (NW) 12:52:28 437.025 FM, 437.400 FM
JAS-2 26 May 12:58:23 13:01:49 15° 302° (WNW) 13:05:04 435.800 - 435.900 CW/SSB, 435.910 FM
Saudisat 1A 26 May 13:05:40 13:07:15 12° 44° (NE) 13:08:50 436.775 MHz
ITAMSAT 1 26 May 13:12:36 13:13:57 11° 61° (ENE) 13:15:17 435.822 SSB
HO-68 26 May 13:14:28 13:16:44 12° 306° (NW) 13:19:00 435.675 MHz FM
PANSAT 26 May 13:25:29 13:28:39 24° 189° (S) 13:31:48 not established
Oscar 19 26 May 13:44:20 13:48:43 29° 69° (ENE) 13:53:08 437.125 CW, 437.150 USB
Uribyol 2 26 May 13:49:14 13:53:34 28° 68° (ENE) 13:57:56 436.500 FM
Oscar 16 26 May 14:23:29 14:28:41 83° 76° (ENE) 14:33:54 437.025 USB, Beacon 2401.1428
AO-27 26 May 14:41:54 14:47:05 90° 257° (WSW) 14:52:18 436.795 MHz FM
Saudisat 1A 26 May 14:43:01 14:47:34 84° 241° (WSW) 14:52:00 436.775 MHz
ITAMSAT 1 26 May 14:47:32 14:52:42 82° 257° (WSW) 14:57:55 435.822 SSB
Uosat F 26 May 14:53:46 14:56:34 15° 64° (ENE) 14:59:22 435.120 FM
AO-Echo 26 May 14:55:37 15:00:02 37° 72° (ENE) 15:04:21 ?
RS-15 26 May 15:07:11 15:17:26 34° 105° (ESE) 15:27:20 29.354 - 29.394 USB, Beacon 29.352 USB
PANSAT 26 May 15:07:18 15:08:25 11° 201° (SSW) 15:09:31 not established
TMSAT-1 26 May 15:08:40 15:10:21 12° 62° (ENE) 15:12:02 436.925 FM
Oscar 19 26 May 15:23:27 15:27:58 30° 263° (W) 15:32:30 437.125 CW, 437.150 USB
Sapphire 26 May 15:25:21 15:28:53 17° 49° (NE) 15:32:23 437.095 MHz 1200 baud AX-25 AFSK
Uribyol 2 26 May 15:28:24 15:32:56 31° 263° (W) 15:37:30 436.500 FM
Gurwin Techsat 1B 26 May 15:29:42 15:34:12 29° 69° (ENE) 15:38:44 435.225 FM
Uosat F 26 May 16:29:59 16:34:52 56° 259° (W) 16:39:47 435.120 FM
PCSat 26 May 16:34:10 16:39:36 67° 62° (ENE) 16:44:58 145.825 MHz
AO-Echo 26 May 16:35:28 16:38:54 19° 265° (W) 16:42:18 ?
TMSAT-1 26 May 16:44:15 16:49:33 81° 257° (WSW) 16:54:52 436.925 FM
AO-7 26 May 16:52:47 17:00:40 51° 66° (ENE) 17:08:36 29.400 - 29.500 MHz
SO-50 26 May 17:01:53 17:06:07 37° 55° (NE) 17:10:16 436.795 FM
Sapphire 26 May 17:07:24 17:12:47 66° 247° (WSW) 17:18:08 437.095 MHz 1200 baud AX-25 AFSK
Gurwin Techsat 1B 26 May 17:09:28 17:14:04 30° 263° (W) 17:18:42 435.225 FM
RS-15 26 May 17:17:09 17:29:08 65° 304° (WNW) 17:40:39 29.354 - 29.394 USB, Beacon 29.352 USB
PCSat 26 May 18:19:47 18:22:22 14° 257° (WSW) 18:24:58 145.825 MHz
Hamsat 26 May 18:38:39 18:40:42 13° 66° (ENE) 18:42:46 145.90 MHz
SO-50 26 May 18:43:15 18:46:25 19° 250° (WSW) 18:49:34 436.795 FM
AO-7 26 May 18:46:28 18:53:36 32° 262° (W) 19:00:50 29.400 - 29.500 MHz

Developed and maintained by Chris Peat, Heavens-Above GmbH. Please read the updated FAQ before sending e-mail. Imprint. DLR
